Location: Conjunto Santa Maria
(19.9513°S, 43.9599°W)
Time: 13:20:43
(UTC+00:00)

MetOp-A - Pass Details

Date: 21 January 2021
Orbit: 819 x 821 km, 98.5° (Epoch: 04 March)

Event Time Altitude Azimuth Distance (km) Brightness Sun altitude
Rises 23:18:12 0° 167° (SSE) 3,371 7.6 -21.3°
Reaches altitude 10° 23:20:34 10° 166° (SSE) 2,433 6.8 -21.8°
Maximum altitude 23:25:58 82° 77° (ENE) 835 4.0 -22.9°
Enters shadow 23:28:57 27° 352° (N) 1,514 5.3 -23.4°
